GEFSSGP_500_meanwind_000.txt.gz
Wind_Speed
10 12 13 12 10 12 12 8 4 2 4 5 11 15 18 20 19 17 16 17 15 13 12 13 12 10 10 12 11 10 11 13 14 14 14 15 15 14 14 15 15 17 18 18 19 19 20 20 21
14 14 12 11 7 9 10 8 4 4 4 6 11 13 15 14 12 13 14 13 11 11 11 9 8 8 8 9 10 11 11 12 14 15 16 16 17 17 17 17 17 18 18 19 20 20 21 21 22
14 12 10 9 8 8 6 2 2 3 2 5 7 10 12 11 12 13 12 12 12 11 9 8 10 10 10 8 8 7 9 10 13 13 14 16 16 17 18 19 19 18 19 20 20 21 23 24 26
13 13 9 9 10 8 6 4 6 5 4 4 3 6 11 12 14 16 16 14 11 9 9 8 8 7 3 4 4 5 8 11 12 12 13 14 14 13 14 15 17 18 19 21 23 25 27 26 26
13 11 11 13 13 9 6 4 8 10 10 9 5 7 10 11 14 17 15 15 13 12 10 7 6 2 1 3 6 10 12 12 12 10 11 11 12 13 14 15 16 18 19 20 22 25 27 26 27
14 11 11 12 11 6 3 3 6 9 11 12 10 11 12 13 15 18 16 15 18 19 12 11 13 10 8 7 7 10 11 11 11 10 10 10 10 12 14 15 15 16 18 19 21 23 26 27 28
14 12 11 10 8 6 5 1 4 9 12 12 13 16 16 13 16 22 21 18 20 18 19 16 18 16 11 9 8 6 8 9 9 10 11 12 13 14 15 16 17 18 19 19 20 22 25 26 27
11 11 12 11 12 10 7 4 4 8 11 13 16 18 20 20 23 22 18 17 22 20 17 14 14 15 12 10 9 8 10 13 14 15 16 17 17 17 18 19 20 20 21 20 20 21 23 24 27
9 11 12 11 11 8 8 6 7 10 12 14 15 18 23 23 23 21 21 23 23 21 19 21 16 12 13 11 11 13 14 16 18 22 23 22 21 21 22 23 23 24 24 23 23 23 24 26 28
11 12 13 10 9 10 11 11 9 10 14 14 16 21 23 22 22 21 22 24 22 23 25 24 21 13 5 11 13 14 13 18 22 24 23 22 22 24 24 24 24 24 25 25 24 24 26 28 29
12 13 13 12 12 14 17 16 14 14 17 18 20 22 23 25 25 23 21 18 20 22 23 22 20 14 5 3 9 11 13 17 19 20 22 23 23 24 24 23 24 25 26 26 25 26 27 28 29
17 16 15 13 14 18 22 20 17 16 18 21 24 25 25 28 29 25 20 17 18 21 22 17 11 8 3 4 9 14 16 18 20 19 20 23 24 24 24 24 23 24 25 27 27 26 27 30 34
23 20 16 14 15 20 23 24 22 18 21 24 27 28 28 26 23 22 21 19 17 18 20 16 14 10 7 11 15 18 22 22 23 26 25 26 26 26 28 29 28 28 29 30 30 30 33 36 38
28 22 17 16 20 23 25 25 24 25 26 27 28 28 28 23 19 21 23 21 18 18 19 19 20 17 13 13 17 21 22 21 20 21 23 27 29 30 30 31 30 32 34 33 31 33 36 39 40
30 25 20 20 25 25 25 23 24 27 30 31 32 33 33 17 16 21 23 21 19 18 18 20 23 20 16 13 14 18 20 21 24 23 24 27 28 27 28 29 32 33 33 33 35 38 40 41 41
30 27 25 24 26 26 28 22 23 24 27 30 32 31 24 13 17 22 25 23 19 19 20 23 24 21 16 13 15 17 19 20 21 21 25 27 26 27 29 31 32 33 35 37 38 41 43 44 44
32 32 27 25 27 27 30 26 29 27 25 24 22 16 15 13 18 23 24 21 19 20 23 25 22 18 15 15 17 19 21 21 21 23 26 26 27 29 31 34 35 36 39 41 41 43 46 47 47
35 35 31 26 28 32 33 31 32 30 29 27 23 16 13 14 20 22 22 20 21 23 25 27 23 20 18 19 21 22 23 23 24 25 25 26 28 31 33 35 38 40 41 42 44 47 49 50 51
36 37 35 28 32 36 36 35 34 33 31 28 25 19 17 17 20 23 22 22 24 25 27 29 28 27 26 26 27 29 28 26 26 26 26 27 29 32 35 38 41 43 45 47 49 51 54 55 57
39 40 37 30 35 39 38 38 37 34 29 24 21 21 17 18 22 25 23 25 26 28 30 33 35 33 32 32 32 32 32 31 30 31 31 32 33 35 40 43 45 46 49 51 52 55 58 59 60
41 39 35 32 37 41 41 40 39 37 35 31 26 20 16 20 24 27 28 29 31 32 34 37 38 37 37 38 39 38 38 38 36 36 35 36 39 43 46 48 48 50 52 53 54 57 59 60 57
39 35 33 33 37 41 44 46 43 43 39 33 23 18 18 22 27 30 32 33 34 35 37 39 40 40 41 41 42 42 43 44 40 41 41 42 47 51 52 52 51 51 53 55 57 59 58 54 46
35 32 35 36 40 44 44 48 47 45 40 31 22 21 24 29 32 34 34 36 37 37 41 42 43 43 43 43 42 41 41 41 41 43 45 48 54 58 56 56 56 56 54 55 59 59 52 44 41
35 33 37 39 41 46 42 45 46 43 36 31 28 28 29 32 34 35 36 38 39 40 41 43 45 44 45 45 44 42 41 42 45 46 51 57 61 62 59 58 58 57 55 57 58 53 44 41 43
36 35 36 38 40 42 39 43 43 39 36 34 33 34 36 37 38 39 40 41 41 42 43 45 47 46 49 45 44 45 43 43 45 50 57 63 65 64 59 57 58 57 59 57 51 43 41 44 45
32 34 34 36 37 39 38 39 37 38 38 38 39 39 40 41 43 44 43 43 44 45 49 44 45 49 53 45 48 51 45 41 46 52 60 66 66 59 55 57 57 58 54 46 42 43 44 45 44
28 32 33 35 37 40 38 37 33 31 30 32 34 35 37 39 39 36 36 39 44 46 47 47 49 52 54 53 55 52 42 41 50 56 60 63 61 56 54 55 56 50 42 42 44 44 43 44 46
29 31 35 37 38 40 38 34 30 26 26 26 26 28 32 36 35 34 37 41 45 48 51 52 54 59 59 53 47 39 39 46 53 55 56 56 53 52 50 52 47 43 41 42 42 44 45 48 53
25 30 33 36 40 41 41 36 34 29 28 27 26 27 29 31 35 36 38 42 46 47 51 54 53 59 57 48 34 32 41 50 52 52 52 51 49 49 50 46 43 43 43 43 44 48 52 56 59
24 29 33 37 39 41 41 39 38 36 34 34 32 31 30 33 36 38 40 43 47 49 50 57 54 48 46 44 43 52 56 50 49 51 51 49 49 49 44 41 43 43 44 46 50 54 58 61 63

GEFSSGP_500_meanwind_006.txt.gz
Wind_Speed
15 16 15 15 15 14 10 8 8 8 8 8 9 10 9 10 10 11 10 10 11 12 12 12 13 12 11 10 9 9 10 11 11 11 11 11 12 12 13 13 13 14 15 16 17 18 18 18 17
13 13 11 12 13 9 10 11 12 11 11 11 12 10 9 11 11 11 11 11 11 11 11 10 10 9 10 10 8 7 8 9 10 11 11 12 13 14 15 15 16 16 17 17 17 17 17 17 17
12 11 10 12 12 12 12 13 14 13 11 11 11 9 8 10 11 11 11 12 11 10 8 8 9 10 12 12 11 9 8 9 9 10 11 12 12 13 14 15 16 17 17 18 18 17 18 19 19
10 10 11 13 15 14 14 12 11 9 8 8 8 7 7 8 8 8 9 9 8 8 8 8 8 9 11 11 11 11 9 9 9 9 9 10 9 9 10 11 13 15 16 16 17 18 19 20 21
10 11 12 13 15 14 11 10 8 6 3 4 3 3 4 5 7 9 9 8 8 7 7 7 6 6 8 8 8 9 9 11 10 9 9 9 10 9 10 11 12 15 16 17 18 19 20 21 22
10 11 13 14 14 13 12 10 8 8 3 2 2 2 4 7 9 10 10 11 11 9 6 2 6 8 9 10 9 10 11 12 11 10 10 11 11 11 12 13 15 17 17 17 18 19 20 22 24
11 12 16 17 16 14 11 9 9 8 4 3 4 5 7 10 9 9 10 12 12 11 8 3 4 8 10 10 11 12 12 12 12 12 12 12 13 15 16 17 18 19 19 20 20 21 23 24 25
11 12 15 17 16 13 8 7 7 6 5 4 5 7 8 12 11 9 9 10 11 12 11 10 5 5 10 13 12 10 10 10 11 13 14 14 16 18 20 20 19 20 21 21 22 23 24 25 26
11 14 16 18 17 13 9 7 5 6 6 5 6 9 10 11 12 12 9 9 10 11 11 9 9 5 6 11 13 11 11 11 14 16 17 18 19 20 20 19 18 19 21 21 22 23 25 26 27
12 14 17 14 14 13 11 9 6 7 7 7 8 10 10 12 14 15 11 7 8 10 10 9 8 7 4 5 9 11 11 12 14 16 17 18 19 20 19 16 16 18 19 20 21 22 24 25 27
12 15 13 13 15 15 14 13 9 9 8 8 10 11 11 12 15 17 13 8 6 8 9 9 9 10 8 7 7 9 11 13 16 17 19 20 21 20 19 18 18 19 19 20 21 22 23 24 26
14 14 15 15 15 17 18 14 13 11 8 10 12 13 12 12 15 17 15 11 7 7 6 7 8 9 9 9 10 11 13 15 17 19 20 20 21 21 20 20 20 20 20 20 22 24 25 26 26
19 18 17 17 17 19 19 16 15 16 13 15 16 16 15 14 17 16 16 13 9 7 6 6 6 6 7 9 10 11 12 14 16 18 19 20 20 19 19 20 19 18 19 21 22 24 25 25 26
24 21 20 21 21 22 21 19 18 20 18 19 20 19 17 16 19 16 15 14 11 8 7 7 6 5 7 8 9 9 11 13 15 17 18 19 18 19 19 19 19 19 20 22 25 26 28 30 32
26 23 23 25 26 27 24 23 25 25 24 23 23 20 18 17 20 17 15 14 13 10 8 7 6 5 7 9 9 9 10 12 15 17 17 18 18 19 20 20 19 20 22 25 28 30 33 35 36
29 27 27 29 31 31 28 23 31 30 29 28 26 22 18 19 22 20 16 15 14 12 10 9 6 5 7 10 12 13 13 14 16 18 18 18 18 19 20 20 21 23 25 27 30 33 36 38 40
31 31 31 32 35 35 32 28 38 33 33 32 29 25 20 19 23 22 18 18 16 15 14 11 9 9 11 13 15 17 18 20 22 23 22 22 21 21 22 23 24 25 27 30 33 36 39 40 42
34 35 36 37 39 37 38 40 43 39 37 35 32 29 23 20 24 24 21 21 19 18 17 14 13 14 16 17 19 20 21 23 25 26 26 27 27 27 28 28 29 30 33 37 40 41 42 43 44
36 36 37 38 41 38 42 46 47 43 41 38 35 32 28 24 28 29 26 25 23 21 19 17 18 20 22 23 24 24 26 28 28 27 28 30 32 33 34 34 34 36 39 42 44 46 47 47 48
34 36 37 38 40 41 46 48 47 45 43 41 40 37 33 30 31 33 31 30 29 28 26 22 22 23 25 27 29 30 31 32 33 32 33 35 37 37 38 39 38 40 43 45 47 49 50 52 54
36 37 37 37 39 42 46 47 46 45 43 42 42 39 34 32 31 33 32 32 33 32 31 30 29 28 29 31 32 34 35 37 38 40 41 42 43 42 42 44 46 48 49 50 52 53 53 55 57
33 35 37 37 39 40 45 45 39 44 42 41 41 41 37 34 34 35 34 32 32 33 34 35 34 32 32 33 35 38 39 40 42 44 45 48 48 48 49 50 52 54 54 54 55 55 56 57 59
32 34 36 37 38 41 44 46 40 42 42 39 39 40 41 39 39 38 34 32 34 36 37 37 37 35 34 36 38 40 42 46 47 47 48 51 52 53 52 51 51 52 53 54 56 57 57 59 61
29 31 32 34 37 42 40 42 38 34 38 36 37 38 40 41 41 38 37 37 37 38 39 40 39 37 37 37 39 42 44 47 49 50 50 49 49 49 48 48 48 49 51 53 56 57 57 59 62
28 28 28 30 33 35 32 38 36 33 35 35 35 36 37 37 36 36 37 37 38 40 42 43 42 39 36 38 41 44 45 48 49 48 45 43 42 42 44 48 50 52 53 55 57 57 58 60 62
30 30 29 28 25 23 26 33 28 31 34 32 30 29 28 27 27 29 32 35 38 40 41 41 40 37 36 39 43 44 44 45 43 41 40 40 42 44 47 50 52 53 54 55 56 57 59 60 58
29 30 29 30 30 28 28 28 29 30 29 26 26 25 23 22 23 25 28 31 33 35 36 37 37 37 39 42 45 47 46 42 40 39 41 43 44 47 49 51 53 53 53 55 56 58 59 58 55
30 28 28 31 30 30 28 25 22 22 24 21 20 21 21 20 20 22 24 27 30 31 32 34 36 39 42 44 46 44 41 40 42 45 45 44 45 48 52 53 53 53 54 56 57 58 56 56 55
31 32 32 30 26 26 27 24 25 28 25 21 19 20 21 23 25 26 26 28 30 31 32 33 36 40 42 43 44 43 42 44 50 48 45 45 47 50 51 51 53 54 56 57 56 55 55 56 55
32 33 31 29 27 27 27 25 28 29 25 21 20 20 21 24 26 27 28 29 30 33 34 35 37 39 40 41 43 45 48 51 52 48 46 46 48 49 49 51 54 56 56 56 55 54 55 55 55

GEFSSGP_500_meanwind_012.txt.gz
Wind_Speed
22 21 19 15 10 5 4 4 11 18 19 15 14 17 20 18 19 18 18 17 14 15 15 14 13 12 11 10 10 11 12 13 15 17 17 16 16 15 15 15 15 15 16 17 17 17 17 17 18
18 18 15 12 9 6 7 6 22 23 19 10 13 17 18 14 15 15 15 14 13 14 15 14 13 11 10 9 9 9 9 10 12 14 15 16 17 16 16 16 17 17 18 18 18 18 18 18 19
13 12 10 12 12 7 2 13 27 23 12 11 17 16 14 12 11 10 9 9 9 11 13 15 14 13 12 10 10 10 11 11 12 13 14 15 16 17 17 18 17 18 18 19 19 19 20 20 20
10 9 12 14 13 5 6 12 21 19 12 12 16 15 11 10 7 6 6 7 8 8 10 12 15 16 14 12 11 11 12 13 13 13 13 13 14 14 15 14 14 14 14 15 16 17 18 19 19
9 11 17 16 12 4 13 11 13 14 11 10 11 14 11 10 8 7 7 8 8 7 8 9 11 13 14 12 11 12 13 13 13 14 14 13 13 13 12 12 12 12 12 13 14 15 17 18 19
13 17 19 13 4 9 11 12 12 9 6 8 8 12 12 12 11 10 8 9 8 7 7 8 9 9 10 11 12 12 13 14 14 14 14 13 13 12 12 13 13 14 14 16 17 17 18 18 19
14 19 19 9 6 11 11 12 12 8 5 4 7 13 11 13 12 11 10 8 7 7 7 7 8 9 9 11 12 14 15 16 16 15 14 13 13 13 13 15 16 18 18 19 20 20 20 21 21
12 14 20 11 7 11 12 11 10 8 6 5 6 13 11 13 13 14 12 10 8 8 9 10 10 10 9 9 12 14 16 17 16 15 14 14 15 15 16 18 19 21 21 21 21 22 23 23 23
11 12 17 12 7 12 11 9 9 7 7 6 10 12 10 13 14 14 13 11 9 9 9 10 11 11 11 9 10 13 15 16 15 15 15 16 17 17 17 18 19 21 21 21 21 21 21 21 21
11 15 12 5 11 9 8 9 10 8 9 9 13 14 11 13 15 16 14 12 11 11 10 10 11 13 13 11 11 11 13 14 14 16 17 17 17 17 17 18 19 19 19 20 21 21 20 19 19
13 16 13 8 17 18 13 10 12 11 12 13 18 18 14 14 17 18 17 15 14 14 13 13 12 13 15 13 13 12 12 13 14 15 16 17 17 17 17 17 18 18 17 19 20 20 19 19 19
15 19 18 14 18 23 18 12 14 16 16 18 23 22 14 16 19 19 20 19 18 18 16 15 16 15 16 16 16 15 13 14 14 14 15 16 16 16 17 16 17 18 17 17 18 18 18 19 21
19 20 21 20 20 19 18 16 17 18 20 22 21 21 16 20 22 21 21 21 21 20 19 19 18 18 18 18 17 16 15 15 14 14 15 16 16 17 17 18 19 19 18 17 18 20 20 21 23
21 22 23 22 21 20 18 18 19 17 20 23 19 18 24 26 25 22 22 23 23 22 21 20 19 19 18 18 18 17 17 16 14 15 16 17 18 19 18 19 20 20 20 20 21 22 23 24 25
26 25 25 24 21 19 18 18 15 15 20 24 24 22 28 28 27 25 24 24 23 23 22 22 20 19 19 19 20 20 20 20 19 19 19 21 21 22 22 21 21 23 24 24 26 27 27 28 29
28 27 26 23 23 21 20 20 15 15 21 28 29 28 32 31 30 30 28 24 24 24 24 24 23 21 21 21 22 22 22 22 21 21 22 24 24 24 25 24 24 26 27 28 30 32 33 34 36
29 28 27 24 23 20 20 21 18 16 25 33 32 30 34 33 33 34 31 26 25 24 24 26 25 24 24 24 23 23 23 22 22 23 25 27 27 28 28 28 29 31 32 33 35 36 38 40 41
26 24 22 22 19 20 24 27 25 19 27 32 33 34 36 36 36 38 35 28 26 26 26 28 29 29 29 28 27 27 26 25 25 25 27 29 30 31 32 32 35 37 38 39 41 42 45 46 48
24 22 20 20 18 21 28 34 34 27 27 32 35 36 37 38 39 39 36 29 28 28 29 30 31 33 34 34 34 33 32 30 30 30 30 32 33 34 34 36 38 41 44 45 46 48 50 51 53
22 27 28 27 27 28 29 32 36 35 32 30 37 41 40 40 42 39 36 33 31 31 32 34 35 37 39 40 40 39 38 37 36 36 36 36 36 36 37 39 41 44 47 48 50 52 53 54 55
24 26 28 30 30 33 35 36 39 42 37 37 40 45 44 42 45 43 39 37 34 33 33 36 37 38 40 42 44 44 44 43 42 42 41 40 39 39 40 42 44 47 49 50 51 52 53 54 55
24 24 25 28 30 32 32 36 36 37 35 31 35 41 42 38 42 42 38 36 36 35 34 36 38 39 41 44 45 46 47 47 47 47 46 44 43 42 42 43 45 48 49 49 51 50 51 53 54
18 18 21 23 26 31 33 38 37 33 30 30 30 34 38 36 37 39 37 37 38 36 33 35 38 41 43 45 47 48 49 50 51 51 50 47 44 44 44 45 47 48 48 48 49 51 53 56 58
17 18 20 22 24 29 27 30 32 29 28 29 27 30 35 33 33 36 35 34 35 34 34 36 39 42 44 45 47 49 50 51 52 52 50 48 45 46 47 47 46 46 47 48 50 53 55 57 60
20 19 19 20 22 22 17 22 23 20 21 26 26 30 32 30 36 38 36 34 33 34 35 36 38 40 42 44 47 48 49 50 50 48 46 45 46 47 47 46 45 46 48 50 52 55 57 59 61
22 22 21 19 20 19 16 18 18 18 20 25 29 34 37 39 39 38 36 32 31 31 33 35 37 40 42 44 45 46 47 47 46 45 44 45 47 47 46 47 49 51 52 54 55 58 60 61 61
21 24 22 22 21 23 23 23 20 20 22 25 28 32 36 35 32 32 31 30 29 30 32 34 35 37 39 41 42 43 44 44 43 43 44 45 47 49 50 51 53 54 55 56 58 60 60 60 59
24 22 22 24 25 26 24 21 19 22 23 26 29 33 31 24 25 27 28 28 28 30 31 32 34 36 38 39 40 41 43 42 42 43 45 48 51 53 54 55 55 55 56 57 58 58 57 57 59
21 21 22 25 26 25 24 20 22 27 29 31 33 35 31 26 26 27 28 28 29 30 31 32 34 36 38 40 41 42 43 42 43 46 49 51 53 54 54 54 54 55 56 56 56 55 56 58 60
24 26 26 28 29 28 29 26 28 31 30 31 34 39 38 31 27 27 28 29 30 31 32 34 36 38 40 42 43 45 46 47 49 50 51 52 53 53 53 54 55 56 56 55 54 55 57 59 61

GEFSSGP_500_meanwind_018.txt.gz
Wind_Speed
21 19 18 16 14 11 9 9 10 9 12 15 19 22 23 20 16 12 10 11 12 13 13 13 14 15 16 18 19 20 20 19 19 19 19 19 19 19 18 18 18 18 18 18 18 18 19 19 20
23 20 17 16 14 14 15 13 9 9 12 14 18 22 20 16 11 9 8 8 8 9 10 11 12 13 14 16 17 19 18 17 17 17 17 17 17 18 17 18 18 18 19 20 20 20 21 22 22
17 17 16 16 17 17 16 12 8 9 14 16 18 18 15 8 5 5 6 7 7 6 6 7 9 11 12 14 16 18 17 16 16 16 15 15 15 16 16 17 19 20 21 22 22 22 23 23 24
13 15 16 19 20 18 14 11 7 8 14 16 15 12 6 3 5 6 7 8 8 7 6 6 7 8 10 13 15 17 17 17 16 15 15 14 14 14 15 17 19 20 21 21 21 21 21 21 22
14 17 20 23 22 17 12 9 4 6 14 14 10 6 1 4 7 8 9 10 9 8 8 8 7 7 8 9 11 13 13 13 13 12 13 13 13 14 15 17 18 19 18 18 18 18 18 19 20
16 20 25 25 20 17 11 4 3 11 14 11 7 4 4 6 9 10 10 10 9 9 9 9 9 8 8 8 9 10 10 10 10 10 12 13 14 15 16 17 18 18 18 18 19 19 20 21 22
19 23 25 22 18 14 7 0 7 15 14 11 5 5 5 8 11 12 12 12 10 10 10 10 8 8 7 7 7 8 9 10 10 12 13 14 15 16 17 18 18 19 20 20 21 22 23 24 24
22 26 25 21 17 10 4 1 9 15 14 9 7 6 6 9 12 13 13 13 11 10 10 10 8 7 7 7 7 7 8 9 10 11 13 14 15 16 16 18 19 21 21 22 23 23 24 24 25
24 28 26 22 18 13 6 5 11 14 13 10 8 6 6 7 10 12 13 13 12 11 10 9 8 7 7 8 7 7 8 8 9 10 12 13 15 16 17 19 20 20 20 20 21 22 22 23 24
26 28 25 23 20 17 11 9 12 14 14 12 10 7 6 6 7 9 11 12 12 12 11 9 9 8 8 8 8 8 9 9 9 9 10 12 14 15 16 17 17 18 18 18 19 20 21 22 23
27 28 27 25 22 18 12 9 13 15 16 13 13 12 10 8 7 8 10 10 11 12 12 11 11 10 8 8 9 9 10 10 10 10 10 11 12 13 13 13 14 15 15 15 16 17 18 20 21
27 29 28 26 23 20 16 13 17 19 17 15 15 15 14 13 12 11 13 11 11 13 14 14 14 12 11 9 10 10 11 12 12 11 11 11 11 11 11 11 11 12 13 13 13 14 15 17 19
25 29 28 27 24 21 20 20 22 22 21 19 18 18 18 17 17 13 13 15 15 14 15 16 16 15 13 12 11 11 13 14 14 13 12 12 13 13 13 13 13 14 14 15 15 15 16 17 18
25 30 31 29 26 22 23 26 26 25 24 23 21 20 21 21 20 17 17 19 20 19 18 17 16 14 13 11 11 12 13 15 15 16 15 15 15 16 17 17 17 17 18 18 19 20 21 22 22
29 31 30 28 26 23 22 25 26 26 27 26 24 22 24 26 24 24 23 23 23 23 23 21 19 17 15 12 11 11 13 15 17 18 19 19 19 20 21 22 22 22 23 24 25 26 27 28 29
33 32 29 27 26 24 23 20 22 27 29 28 26 24 26 30 30 29 28 26 26 28 27 26 24 23 21 18 15 14 15 17 19 21 23 24 25 26 27 29 29 30 30 31 32 33 34 35 35
34 32 30 28 26 24 23 18 18 25 29 29 27 26 28 32 34 35 34 32 30 31 30 29 28 27 27 25 22 20 20 21 23 25 27 28 30 31 33 34 35 36 37 38 38 39 40 41 41
32 33 31 28 23 22 21 17 15 19 26 28 27 28 30 33 36 37 37 36 35 33 33 34 32 31 32 32 30 26 25 26 27 29 30 32 33 35 37 38 40 41 42 43 43 44 45 45 46
31 33 32 29 28 29 26 22 19 18 24 28 28 29 31 35 38 39 39 39 38 37 36 35 34 34 34 33 33 31 30 31 32 33 34 34 36 38 40 42 44 45 46 47 47 48 49 49 49
33 33 31 29 30 30 28 26 24 23 25 27 29 32 35 39 42 42 41 41 40 39 38 38 37 36 36 35 35 34 34 34 36 37 38 38 39 41 44 46 47 48 49 49 49 50 50 51 51
31 31 29 29 30 32 33 32 27 25 25 28 32 35 39 43 44 43 42 42 40 39 39 39 39 40 40 39 37 36 35 36 38 39 40 41 42 44 46 47 48 48 48 48 49 49 50 51 52
27 26 27 28 32 34 35 37 32 30 29 31 34 36 40 43 43 43 42 40 38 38 39 40 41 42 42 41 37 36 36 38 39 39 40 42 44 45 45 47 47 48 48 48 47 47 48 49 51
24 22 22 25 29 32 34 37 34 32 35 36 38 39 41 43 43 40 36 34 34 37 40 41 42 42 42 39 37 36 37 38 39 40 41 42 42 44 46 47 48 48 48 48 47 47 48 49 51
20 20 22 25 27 26 22 28 26 24 31 38 41 41 42 42 40 36 33 33 35 39 41 42 43 43 41 40 37 36 36 37 39 40 40 42 43 44 46 47 47 47 48 48 48 49 50 53 56
22 22 23 24 23 18 14 20 15 15 23 29 32 33 34 36 36 35 33 34 38 41 43 45 44 43 41 40 38 36 36 37 39 40 41 42 44 45 46 46 47 48 48 49 50 53 55 57 59
23 23 23 23 21 17 17 19 14 17 20 21 21 23 24 27 30 31 32 35 39 42 43 43 41 41 39 38 37 36 37 38 40 42 43 44 45 46 46 47 48 49 50 52 54 57 59 60 61
21 22 22 24 24 24 21 19 18 21 21 21 21 21 22 24 28 31 33 37 40 42 41 40 39 37 36 36 36 37 39 41 43 45 46 47 48 48 49 50 51 53 55 56 58 60 61 61 62
25 22 24 26 27 26 23 19 19 22 24 26 28 27 26 28 30 34 37 39 40 39 38 37 36 33 33 35 36 39 42 44 46 47 49 49 50 51 52 54 56 58 60 61 62 62 63 63 64
28 29 29 28 26 24 24 22 22 23 24 25 28 29 30 31 33 35 38 39 40 39 36 34 31 31 33 35 38 42 45 47 49 50 51 52 53 55 57 59 60 62 64 64 64 64 64 64 65
28 32 33 32 28 25 24 26 26 28 28 29 31 33 35 36 36 38 40 40 41 40 35 30 29 32 35 39 42 45 48 50 52 53 53 55 57 60 61 62 62 63 63 63 63 63 62 62 63

GEFSSGP_500_meanwind_024.txt.gz
Wind_Speed
19 18 17 16 15 14 13 13 10 8 7 6 7 8 7 7 7 6 5 4 5 6 8 9 9 10 9 9 9 9 10 11 11 12 13 13 12 12 12 12 13 13 14 14 14 14 15 16 17
19 19 18 17 16 16 16 14 10 8 6 6 8 9 9 9 7 6 5 4 5 6 6 7 8 8 8 8 8 8 8 9 10 10 11 12 12 11 11 12 12 13 14 14 15 16 17 18 18
18 19 19 18 17 17 18 14 11 9 7 6 9 10 10 9 7 6 5 4 5 6 6 6 6 7 7 6 6 6 7 8 9 10 11 11 11 11 10 11 12 13 13 15 16 17 18 18 18
18 19 19 19 18 18 18 15 12 8 6 5 8 10 10 9 7 6 5 6 7 7 7 7 7 7 7 6 6 6 6 7 8 9 9 10 10 10 10 11 12 13 14 15 16 17 17 17 16
17 19 19 20 20 19 18 15 9 5 3 3 6 10 10 8 7 7 8 8 8 8 9 9 9 9 8 7 6 6 6 6 7 7 8 9 9 9 10 11 12 13 14 15 16 17 17 17 16
17 18 19 21 22 20 18 15 9 5 1 3 6 9 10 8 9 10 10 11 11 11 11 12 12 11 10 8 7 6 6 6 6 7 7 8 8 9 11 12 13 13 14 15 17 18 19 19 19
16 18 20 24 25 23 21 16 11 6 3 4 6 8 8 9 10 11 13 14 15 15 14 14 14 13 12 10 8 7 6 5 5 6 6 7 8 9 10 11 12 13 15 17 18 20 21 21 20
16 20 23 27 28 26 23 17 13 8 6 6 6 7 7 8 10 12 13 15 16 17 17 17 16 15 13 11 9 7 6 5 5 5 6 6 7 8 9 10 12 14 16 17 18 20 20 21 20
18 22 26 29 29 27 23 20 16 10 8 7 6 5 5 6 8 9 11 13 15 16 18 18 18 17 15 12 10 8 7 6 5 4 5 5 6 7 9 10 12 13 14 15 16 18 18 18 19
19 26 30 31 30 27 24 22 18 12 8 8 6 2 2 4 6 8 10 11 13 15 17 19 19 19 17 14 12 10 8 7 6 5 5 5 6 7 8 9 10 11 12 13 14 15 16 16 17
23 29 32 32 29 27 25 23 19 15 10 8 6 4 2 2 5 7 9 10 11 13 16 17 18 19 18 16 14 12 10 9 7 6 6 5 6 7 8 9 10 11 12 13 14 15 16 16 17
28 32 31 31 28 27 26 23 20 17 13 11 9 7 6 6 6 7 9 10 10 12 14 16 19 20 19 17 16 15 13 11 10 8 7 7 7 7 8 9 10 11 12 13 14 16 17 18 19
32 34 32 30 28 27 26 24 21 18 16 15 12 10 8 8 8 8 9 10 11 14 15 16 20 21 20 19 17 16 15 14 12 11 9 9 9 9 9 10 11 12 13 14 15 17 18 20 21
36 36 34 31 29 28 28 25 21 18 17 16 14 12 11 11 12 11 11 11 13 14 16 18 20 22 22 22 20 18 17 16 15 14 13 12 12 12 13 13 14 15 17 18 19 21 22 23 25
37 37 35 33 31 31 29 27 24 21 19 18 17 16 15 15 15 15 14 14 15 16 17 19 21 23 24 23 22 21 20 20 19 18 17 17 16 17 18 19 20 21 22 22 23 24 26 27 28
36 36 36 35 35 34 31 28 27 24 22 21 21 21 20 19 19 18 17 16 16 17 18 21 23 25 25 25 24 23 23 24 24 23 22 22 22 22 23 25 26 26 27 27 27 28 30 31 32
35 36 36 37 36 36 33 29 28 27 27 26 26 26 26 25 23 20 18 17 17 18 20 22 25 27 28 28 27 25 26 26 28 28 28 28 27 27 28 30 31 31 31 31 31 32 33 34 35
36 37 38 39 39 38 37 31 29 31 31 32 32 31 30 29 26 22 20 18 18 19 22 25 27 29 30 30 29 29 28 28 30 32 32 31 32 33 33 34 34 34 33 32 32 34 34 36 38
38 39 39 39 41 41 40 36 33 34 35 35 35 34 33 31 27 25 22 21 20 21 24 27 29 31 33 33 32 31 31 30 31 30 33 34 34 35 36 35 34 35 33 32 32 33 35 37 38
38 39 38 38 41 44 45 43 38 37 38 37 36 35 33 31 29 28 26 24 23 23 26 28 31 33 35 35 35 33 33 32 30 29 29 31 33 34 34 34 34 33 33 33 34 35 37 38 38
37 36 35 36 40 44 46 46 42 40 40 39 37 37 35 32 31 31 29 27 26 26 28 30 33 36 37 37 36 36 35 33 30 29 28 28 29 31 32 32 33 34 35 37 37 38 39 40 41
34 32 33 36 39 41 44 45 42 40 40 39 38 38 36 34 33 33 32 31 30 30 31 34 37 38 40 39 38 38 37 36 32 28 27 26 27 28 30 31 34 35 37 38 40 41 43 44 45
29 29 32 34 37 39 41 42 40 39 39 38 39 39 38 36 36 35 34 34 34 35 36 38 40 42 42 41 41 39 39 36 32 28 27 26 27 28 30 34 36 37 40 42 44 45 47 48 49
29 31 33 35 36 38 36 39 39 37 37 37 38 39 39 38 38 37 36 36 37 39 40 42 43 44 43 43 43 40 39 36 31 29 29 27 28 30 32 36 39 41 44 46 48 50 51 53 54
33 34 35 34 35 35 32 36 37 36 36 36 37 38 38 39 38 38 37 38 39 41 42 42 43 43 43 45 44 41 37 33 30 30 29 29 31 34 36 39 43 45 48 51 53 55 56 58 59
34 35 35 35 35 32 30 33 33 32 31 32 33 33 33 34 35 35 36 36 36 36 36 37 38 40 40 41 40 37 35 33 32 31 31 32 34 37 40 44 47 49 52 55 57 59 60 62 64
32 34 33 34 34 32 32 32 32 29 27 28 29 30 30 30 31 30 30 30 30 31 32 34 36 38 38 38 38 38 37 35 33 33 35 36 38 41 45 47 51 54 56 59 62 63 65 67 69
34 34 34 34 33 32 32 30 28 26 26 27 28 30 30 30 30 30 29 29 29 30 32 34 36 37 39 41 41 40 38 37 36 37 38 40 43 46 49 52 56 58 61 64 66 67 69 71 71
36 36 35 35 33 31 30 28 27 27 27 28 29 30 30 29 28 28 28 29 30 32 34 37 39 41 43 44 42 42 40 40 39 40 42 45 47 51 54 57 60 62 65 67 69 70 71 71 70
35 36 35 34 33 32 31 30 28 28 28 29 30 30 30 29 28 28 29 31 33 36 38 41 43 44 46 44 42 41 41 40 42 43 46 49 52 56 58 61 63 65 67 69 70 70 69 68 66

GEFSSGP_500_meanwind_030.txt.gz
Wind_Speed
26 26 24 21 17 14 11 10 8 5 4 4 6 6 6 6 5 5 4 2 2 1 1 1 2 3 4 5 6 7 8 8 7 6 5 5 5 5 5 6 6 6 5 5 4 5 6 7 8
27 27 25 23 20 15 12 13 10 7 4 4 4 4 3 2 2 2 1 2 2 2 3 2 2 1 1 2 4 5 7 7 6 5 5 5 5 5 5 5 5 5 5 5 5 6 6 8 9
27 27 26 26 24 19 16 16 12 7 4 4 3 1 1 3 5 5 4 4 4 4 4 4 4 3 1 0 2 3 4 5 5 5 5 5 5 5 5 5 5 5 5 5 5 6 7 8 9
25 26 26 26 24 21 20 18 14 8 5 3 2 2 5 7 8 8 7 7 6 6 6 7 6 5 3 2 0 1 3 3 3 4 4 4 5 5 5 6 6 6 6 6 6 7 8 9 9
23 23 24 25 24 23 22 19 14 9 6 5 4 5 8 10 10 10 10 10 10 10 10 9 8 7 6 5 3 2 1 2 3 3 4 5 5 6 7 7 8 7 7 7 7 8 9 10 10
20 20 21 22 24 25 23 20 15 11 8 7 7 8 10 12 12 12 12 12 13 13 13 12 11 10 8 6 5 4 2 2 2 4 4 5 6 7 8 9 9 9 8 8 8 9 10 11 12
17 17 18 23 27 27 24 20 16 13 11 10 9 11 12 13 13 12 12 12 13 13 13 12 12 11 10 9 7 5 4 3 3 4 5 7 8 8 9 9 10 10 10 10 10 10 10 11 12
14 15 17 23 28 28 25 20 17 15 13 12 12 12 12 13 12 11 10 10 10 10 11 11 11 11 11 9 8 7 6 5 5 5 7 7 8 9 10 10 10 10 10 11 10 10 10 10 10
13 15 17 24 29 28 24 21 19 17 15 14 14 14 13 12 11 9 7 7 7 7 8 8 9 9 9 9 8 8 7 6 6 6 7 8 9 10 10 10 10 10 10 9 9 9 9 9 9
13 14 19 26 29 29 25 22 20 18 16 15 15 14 13 11 9 7 5 3 3 5 6 8 9 9 9 9 9 8 8 7 7 7 8 8 9 10 10 10 10 10 10 10 9 9 9 8 8
13 16 22 25 27 26 24 22 21 19 16 15 15 14 12 10 8 6 3 1 3 5 7 9 10 11 11 10 10 10 9 9 9 9 9 9 10 10 11 12 11 11 11 10 10 10 9 9 9
16 18 22 24 25 25 24 22 21 20 18 17 16 15 13 11 8 6 3 2 3 6 8 10 12 12 13 13 13 12 12 11 12 12 12 12 12 12 13 13 13 13 13 12 12 12 11 11 11
19 21 23 23 24 24 23 22 21 21 20 18 16 15 13 11 9 8 6 5 5 7 10 12 13 14 14 15 15 15 14 14 15 15 15 15 16 15 15 15 16 16 16 15 15 15 15 15 15
22 23 23 23 23 23 24 22 21 21 20 19 16 14 13 12 11 10 8 7 7 9 11 13 15 15 16 16 17 17 17 17 18 18 19 19 19 19 19 19 19 19 20 19 20 20 20 20 20
24 24 24 24 24 24 23 21 22 21 19 18 16 15 14 14 13 12 11 11 11 12 13 15 16 17 17 18 18 19 20 21 21 22 22 23 23 23 24 24 24 24 25 25 25 25 25 25 25
26 26 27 27 26 25 23 22 23 21 20 19 18 16 15 15 14 14 14 14 15 16 16 17 18 19 19 20 20 21 23 24 25 26 27 27 28 29 30 30 30 31 31 30 30 29 29 29 29
28 29 31 31 29 27 26 25 25 22 21 21 20 19 18 17 16 16 17 18 19 20 20 21 21 21 22 23 23 24 26 28 30 31 32 32 33 34 35 36 36 36 35 35 34 32 31 31 31
31 32 34 35 33 30 29 29 27 24 23 23 23 22 21 19 19 20 21 22 23 24 24 24 24 24 25 26 27 29 31 33 35 35 36 36 37 38 39 39 39 39 38 37 35 33 32 32 31
34 35 37 40 36 34 33 32 31 29 27 27 26 25 24 23 24 24 25 25 26 27 28 28 27 27 28 29 31 34 36 38 39 40 40 39 38 38 38 38 39 39 38 37 36 33 31 30 29
35 36 38 41 39 39 39 37 35 33 32 31 30 30 29 28 28 28 28 28 28 29 30 30 30 30 32 33 36 37 40 42 43 43 42 40 37 36 36 35 33 33 34 34 32 30 28 27 26
35 36 38 41 42 42 42 40 40 40 38 36 35 34 34 33 32 32 31 30 29 30 31 32 32 33 35 37 38 40 43 45 45 44 41 39 37 33 31 30 30 29 28 28 27 26 25 26 27
33 35 37 40 41 42 45 42 39 43 42 41 40 39 38 37 36 35 34 32 30 31 31 32 34 36 37 39 40 42 45 48 48 45 39 36 32 29 29 28 28 27 27 26 25 23 25 27 29
32 33 35 38 41 43 45 43 38 44 43 44 45 44 43 42 40 38 35 33 31 31 32 33 35 37 39 40 42 44 46 47 45 43 41 37 34 29 26 26 26 26 26 26 26 27 29 32 34
32 33 34 36 39 42 42 42 37 43 43 42 44 44 43 41 39 37 34 33 32 32 33 34 36 38 39 41 43 42 43 44 42 42 38 37 33 29 26 26 27 27 28 29 29 31 35 37 39
32 32 32 33 36 35 37 38 34 42 39 38 39 39 38 37 35 34 33 32 32 32 33 34 36 38 39 40 40 40 41 40 40 39 38 37 34 32 31 31 30 30 32 33 34 36 40 43 45
30 31 31 26 24 25 33 32 36 36 34 33 33 32 31 30 29 29 28 28 28 29 30 31 33 35 37 38 38 39 39 39 39 39 39 37 36 35 33 33 35 35 36 38 40 42 45 47 50
30 30 30 30 27 24 22 30 34 32 30 29 28 27 26 26 25 24 24 25 26 27 29 31 33 34 36 37 38 38 38 38 40 40 39 39 38 37 36 37 38 39 41 43 44 46 49 52 55
28 28 30 31 27 24 23 26 27 29 27 26 26 26 25 24 23 23 23 24 26 28 29 31 33 34 35 36 37 38 39 39 40 41 40 40 39 39 39 40 42 43 45 46 49 52 54 56 58
26 28 30 29 27 24 20 21 26 26 25 25 25 24 24 24 24 25 25 26 28 29 31 32 34 35 36 37 38 39 40 41 41 42 42 42 42 43 43 44 45 47 49 51 53 55 57 58 59
25 26 28 29 28 28 24 24 25 24 24 23 24 24 24 24 25 26 28 29 30 32 33 35 36 37 39 40 41 42 43 44 44 45 45 46 46 47 47 48 49 51 53 54 56 57 58 59 60

GEFSSGP_500_meanwind_036.txt.gz
Wind_Speed
22 20 18 16 14 12 3 1 7 12 13 13 14 12 13 15 14 12 11 9 6 7 8 8 8 9 10 11 11 11 12 12 12 12 12 12 11 11 11 11 11 11 11 11 11 11 11 11 10
25 23 21 19 18 12 4 5 10 15 16 12 12 12 14 14 12 10 8 7 4 6 5 6 6 7 8 8 9 10 10 10 11 11 11 11 10 10 10 10 10 10 11 11 11 11 11 11 10
27 25 24 24 22 14 7 5 10 14 12 11 12 12 11 11 9 7 7 6 5 5 4 5 5 6 6 6 7 7 8 8 9 9 9 9 9 9 9 9 9 10 10 10 11 11 11 11 11
28 28 27 27 26 16 10 8 11 11 9 9 9 9 8 8 7 7 7 7 6 6 5 4 4 4 4 4 4 5 5 6 7 7 8 8 8 8 8 8 9 9 9 10 10 11 11 11 11
30 30 30 30 30 21 15 12 15 14 11 8 8 10 6 6 6 7 7 7 7 6 5 4 4 4 3 3 2 2 2 4 5 5 6 6 7 7 7 8 8 9 9 10 11 11 11 12 12
31 31 32 30 27 21 15 14 19 17 14 12 8 11 5 6 7 8 7 7 7 6 6 6 5 4 4 3 2 1 1 2 3 4 4 5 6 7 7 8 8 9 10 11 11 12 12 12 12
30 31 31 28 24 21 17 17 20 18 16 14 10 11 6 7 8 9 8 7 7 6 5 5 6 6 5 4 3 3 2 2 3 4 5 6 6 7 7 8 9 10 10 11 12 13 13 13 13
27 29 30 29 26 24 20 20 22 19 17 16 13 12 10 10 10 10 9 8 7 6 5 5 5 5 5 4 3 3 3 3 3 4 6 6 7 8 8 9 10 10 11 12 13 14 13 13 13
24 27 27 26 24 21 19 20 20 20 20 19 16 15 15 12 11 10 9 8 6 5 4 3 4 4 4 4 4 4 4 5 5 6 7 7 8 9 9 10 10 11 12 13 14 14 13 13 13
21 21 19 22 21 17 17 21 20 19 21 20 18 17 15 13 13 11 9 7 5 3 1 2 3 5 6 6 6 6 6 6 7 8 8 8 9 10 10 11 11 12 13 14 15 15 15 14 14
19 18 19 21 19 20 20 20 22 23 21 17 14 14 14 15 14 13 11 8 5 4 3 3 5 7 8 9 9 9 10 10 10 10 11 11 11 12 12 13 14 15 15 15 16 16 16 16 15
20 19 20 21 20 25 26 24 25 26 23 19 17 18 17 15 14 14 12 9 7 7 6 7 8 9 11 12 12 12 12 13 13 13 14 14 14 14 15 15 16 17 17 18 18 18 18 18 18
21 20 20 21 21 23 28 29 29 28 25 23 22 20 19 17 16 14 12 11 10 9 10 10 11 13 14 15 15 15 15 15 16 16 17 18 19 19 19 20 19 20 20 20 21 21 21 21 21
23 22 22 20 19 19 23 27 28 27 26 24 22 21 21 18 17 15 14 13 12 11 11 12 14 15 17 18 19 19 19 19 19 20 21 23 24 25 25 25 25 25 23 23 24 23 23 25 25
25 24 22 19 16 16 18 23 26 25 24 22 19 20 18 19 17 15 15 14 14 12 13 14 15 17 19 20 22 22 22 23 23 23 25 27 28 30 31 30 31 30 29 28 28 27 29 29 30
27 25 22 18 15 14 17 20 23 24 22 21 19 19 19 18 16 16 17 16 16 14 14 16 17 18 21 23 24 25 25 26 27 28 29 31 33 34 34 34 34 34 33 33 33 31 33 33 33
27 25 21 18 16 15 16 18 18 19 21 22 20 19 20 19 17 19 21 18 17 15 15 17 19 20 22 25 26 27 28 29 30 31 32 33 36 37 37 34 34 35 35 35 34 34 35 36 36
24 21 20 18 17 17 16 18 17 18 21 22 20 20 20 19 18 19 21 21 19 18 17 19 22 23 25 27 28 30 30 31 32 33 35 36 37 37 36 35 35 33 33 33 32 33 35 36 37
22 16 16 14 15 18 18 21 20 19 20 21 21 20 19 19 21 23 23 24 23 21 20 22 25 27 28 29 30 32 32 32 33 35 37 38 39 37 34 35 34 33 32 31 30 30 30 31 33
30 26 21 16 17 22 22 24 24 21 20 23 23 23 23 23 24 24 25 26 27 25 24 24 27 29 31 32 33 33 33 34 35 37 38 39 39 37 34 33 34 33 31 29 28 27 26 28 29
33 30 25 20 22 29 29 27 28 27 26 26 27 28 28 28 27 26 27 29 30 29 27 27 29 32 34 35 34 34 35 35 36 38 40 40 38 36 34 32 32 31 30 29 28 28 27 28 29
34 32 30 29 28 28 31 29 28 29 30 30 30 32 32 30 29 29 31 32 32 32 32 31 32 34 35 36 35 36 37 37 37 39 40 41 39 37 35 32 31 31 30 29 30 28 28 29 30
30 30 31 33 34 32 31 29 24 25 29 30 33 35 34 32 33 33 33 34 35 35 36 35 34 35 36 36 36 37 38 38 39 40 41 41 40 38 35 33 32 32 31 31 31 31 31 31 31
28 26 26 31 34 36 33 31 24 23 27 32 37 38 36 34 34 34 35 36 37 38 38 38 36 36 36 37 37 38 39 40 41 42 42 41 39 38 36 35 34 34 33 33 33 34 34 34 35
28 27 25 27 32 33 28 30 29 30 32 35 39 40 38 36 36 36 37 38 38 38 38 37 37 36 37 37 38 39 40 41 42 42 42 40 39 38 38 37 36 36 36 35 35 35 36 37 39
25 27 26 19 14 14 17 21 25 34 37 38 39 42 43 42 41 40 38 37 36 35 35 36 36 36 36 37 38 40 41 42 42 42 41 41 40 40 40 38 38 38 38 38 37 38 39 41 43
22 24 23 23 21 17 13 22 31 32 34 37 41 45 46 46 44 41 37 34 33 32 33 34 35 36 37 38 39 40 41 41 42 42 43 43 43 42 42 41 41 41 41 41 41 42 43 44 46
23 19 20 25 24 20 14 21 30 31 31 31 34 38 41 41 40 37 34 31 31 31 32 33 34 36 37 38 39 41 41 43 44 45 45 45 45 45 45 45 44 44 44 44 44 45 46 48 50
21 22 22 23 23 22 19 21 26 29 29 30 31 30 30 31 32 31 30 30 30 31 32 33 35 36 38 39 41 42 43 45 46 46 47 47 48 48 48 48 48 48 47 48 48 49 50 51 53
17 20 22 24 24 23 23 25 30 30 30 30 30 28 27 28 29 30 30 31 31 32 33 34 36 37 39 40 42 43 44 45 46 47 49 50 50 51 51 51 51 51 51 51 52 53 54 55 55

GEFSSGP_500_meanwind_042.txt.gz
Wind_Speed
23 23 22 22 20 15 10 5 3 4 8 13 14 14 14 15 15 14 13 13 11 10 10 10 10 10 10 11 11 12 12 12 12 12 12 12 13 13 14 14 14 14 13 13 13 13 13 13 13
26 25 25 25 24 19 12 7 3 4 9 14 16 15 14 14 14 13 12 11 10 9 9 9 9 9 9 9 9 10 10 10 11 11 11 11 11 12 13 13 13 13 13 13 13 13 13 14 14
28 28 28 29 27 23 16 11 4 2 8 15 17 16 14 12 10 10 10 9 8 7 7 7 7 7 7 7 7 8 8 8 8 8 8 9 9 10 11 12 12 12 13 13 13 13 13 14 14
30 31 31 32 30 26 19 13 7 3 9 15 18 16 14 10 6 6 7 7 6 6 6 5 5 6 6 6 6 6 6 6 6 5 5 6 7 8 9 10 11 12 12 12 12 12 13 14 14
30 33 34 33 32 27 22 15 9 6 11 15 17 16 14 10 5 5 6 5 5 5 4 4 3 3 3 4 4 4 4 4 3 3 3 4 5 6 8 9 10 11 11 11 12 12 13 14 15
28 32 34 33 34 30 25 18 11 7 13 15 18 17 13 9 4 5 5 4 4 4 3 2 2 2 2 2 3 3 2 2 1 1 1 2 3 5 6 8 9 10 11 12 12 13 14 15 16
25 30 33 33 35 33 27 20 14 11 13 16 19 17 13 9 3 5 5 5 4 4 4 4 4 4 4 4 3 3 2 2 1 1 1 2 3 4 6 8 9 11 11 12 12 13 14 16 17
24 28 30 33 37 35 28 23 17 15 16 18 20 17 15 12 5 6 6 5 5 5 5 6 6 5 5 5 4 4 3 3 3 3 3 3 4 5 7 8 10 11 12 12 13 14 15 17 19
24 25 25 30 35 34 31 27 21 19 18 18 20 19 17 14 9 8 7 7 6 6 6 6 6 5 5 5 4 4 4 4 4 4 4 4 5 6 7 8 10 11 13 14 15 16 17 18 19
22 20 18 25 32 34 34 31 24 22 21 20 20 21 19 16 12 11 9 8 7 6 6 5 5 4 4 4 4 4 4 4 5 5 5 5 6 7 7 9 11 13 14 15 16 17 18 20 21
20 16 18 26 31 34 35 33 29 26 24 22 21 21 20 18 15 13 11 8 7 6 5 4 3 2 2 3 3 3 4 5 5 5 6 6 6 7 8 10 12 13 15 16 17 18 20 21 22
20 16 20 26 31 35 35 34 32 28 25 24 22 22 21 20 16 15 12 10 8 6 5 5 3 2 1 2 3 3 3 4 5 5 5 6 7 8 10 11 13 14 14 14 16 18 20 22 23
20 18 20 25 30 33 35 34 32 29 26 26 25 24 21 18 17 15 14 11 9 8 6 5 4 3 2 1 1 2 3 3 4 4 5 5 7 9 11 11 13 13 14 14 15 16 18 20 22
22 21 22 26 29 30 33 33 33 29 28 28 26 24 22 20 18 16 15 13 11 9 8 7 6 6 5 3 3 3 3 3 4 4 5 6 7 9 11 12 13 14 14 15 16 16 17 19 21
26 25 25 25 26 26 28 30 30 30 32 30 28 25 23 22 20 17 17 15 14 12 9 8 8 7 7 6 5 5 5 6 7 7 8 9 9 10 11 13 12 13 13 15 16 16 16 17 19
29 27 25 24 24 24 24 24 28 32 33 31 29 27 25 23 19 18 18 17 18 15 12 11 10 9 8 8 8 8 8 8 10 10 11 12 12 12 13 14 14 14 14 14 15 16 16 16 17
30 27 25 23 22 22 21 20 28 35 34 32 30 28 24 22 21 21 19 18 19 17 15 13 12 12 12 12 11 11 11 11 13 14 15 15 15 15 15 15 16 16 16 16 16 16 16 16 16
30 27 25 23 21 21 20 20 26 32 34 33 31 29 26 25 23 22 20 19 20 19 17 16 14 15 16 16 15 15 16 17 17 18 19 19 18 18 18 18 18 19 18 18 17 17 17 16 16
30 29 25 23 23 21 20 21 24 28 29 30 30 28 26 25 24 23 22 20 20 19 16 14 14 17 18 20 20 20 21 22 23 23 23 23 23 22 22 21 20 20 19 19 19 19 17 18 18
31 28 25 24 23 21 22 25 26 27 28 27 27 27 26 26 25 24 22 20 19 17 16 17 17 20 21 22 24 25 26 26 27 27 28 27 26 25 25 25 23 22 22 22 22 21 20 20 20
32 29 26 25 24 23 26 28 29 28 28 27 26 26 27 26 26 26 25 22 20 20 19 19 21 22 24 26 28 28 29 29 29 30 30 30 29 28 27 27 26 24 25 25 24 24 24 24 24
31 29 28 27 25 25 29 29 29 28 28 28 26 27 28 28 27 27 27 25 23 23 24 24 26 27 30 30 29 30 31 32 32 31 31 32 32 30 29 29 28 28 28 28 27 27 27 27 28
30 31 30 29 28 28 29 30 30 30 30 30 28 27 27 28 29 29 28 28 28 28 28 29 30 32 33 33 34 35 35 35 34 34 35 34 33 32 32 31 30 30 30 29 30 30 30 31 32
31 32 32 31 31 30 30 31 31 33 33 32 31 30 29 29 29 30 30 31 31 31 32 33 35 35 36 38 39 38 38 37 37 37 36 35 34 33 33 32 32 32 31 32 32 33 34 35 36
31 33 33 34 34 32 30 31 30 30 31 34 35 34 34 33 33 33 34 33 34 35 36 37 38 39 40 41 41 40 39 38 37 37 35 35 35 34 34 34 34 34 34 35 35 36 37 38 40
28 32 33 36 37 35 33 33 32 29 30 33 35 37 37 36 35 35 35 36 37 38 40 40 42 43 44 43 42 41 40 39 38 37 37 36 36 35 35 35 36 37 37 38 39 40 41 42 44
23 26 29 33 35 35 36 37 36 33 32 33 35 37 38 38 37 36 37 38 40 41 43 44 45 46 45 44 43 42 41 39 38 37 37 37 37 37 38 39 40 40 40 41 43 44 45 46 48
21 22 26 29 31 32 35 37 37 33 31 32 33 35 37 39 39 39 39 39 42 44 45 47 47 47 46 44 43 42 40 40 40 40 40 40 41 41 42 43 43 44 44 45 47 48 50 51 51
20 24 26 27 29 31 33 35 36 32 31 32 33 34 35 37 38 39 40 42 43 45 46 47 46 46 45 44 43 42 41 42 42 43 44 44 45 45 46 46 47 48 49 50 52 53 54 54 55
20 23 25 28 29 31 35 38 37 33 28 28 31 33 35 38 39 40 42 44 45 45 45 45 45 44 44 43 43 43 44 44 45 46 47 47 48 49 50 51 52 53 55 56 56 56 57 57 58

GEFSSGP_500_meanwind_048.txt.gz
Wind_Speed
24 25 25 24 21 19 16 14 13 12 10 7 5 3 3 5 7 8 8 8 8 9 10 9 10 11 11 10 8 8 7 7 7 6 7 7 8 8 9 9 9 10 10 11 11 11 12 12 12
24 26 27 27 25 22 19 16 14 12 10 7 4 3 4 7 8 9 9 8 8 9 9 10 10 10 10 9 8 7 6 6 6 6 7 7 7 7 7 7 8 8 9 9 10 10 10 11 11
25 27 30 30 28 24 21 19 17 14 11 7 4 4 5 7 8 9 9 7 7 7 8 9 9 9 8 7 6 6 5 5 5 5 5 6 6 6 6 6 7 7 8 8 9 9 9 9 10
26 29 30 31 30 27 23 22 19 16 13 10 6 5 5 7 7 8 8 6 6 6 7 7 7 6 6 6 5 4 4 4 4 4 4 4 4 4 5 5 6 7 7 8 8 8 9 9 10
25 29 30 31 31 29 26 23 21 18 16 12 9 7 5 7 6 7 6 5 5 6 6 6 5 5 5 5 4 4 3 3 3 2 2 2 2 3 4 4 5 6 7 8 9 9 10 10 10
26 27 29 28 31 32 29 25 23 21 18 16 12 8 5 6 6 5 3 2 4 5 6 6 5 5 5 5 5 5 5 4 3 2 1 0 1 2 3 4 5 6 7 8 9 10 10 10 10
27 25 26 27 32 35 31 29 25 22 19 17 13 9 6 5 5 4 2 1 3 4 5 5 6 6 7 7 7 7 6 5 5 4 3 2 1 1 2 3 5 6 7 9 10 10 10 9 10
28 25 23 24 32 35 34 32 29 26 22 19 15 10 8 6 5 4 1 2 3 4 5 6 7 8 9 9 8 8 7 6 6 5 3 2 1 1 2 3 5 6 8 10 11 11 11 10 10
30 26 20 20 29 35 37 36 33 30 25 20 17 13 10 7 5 3 1 2 4 5 6 7 8 9 9 9 9 9 8 7 6 5 4 2 1 1 2 4 5 7 9 10 12 13 12 12 11
32 26 19 20 29 37 41 40 36 34 29 24 20 16 12 9 6 4 2 3 4 6 7 7 7 8 9 9 9 9 8 8 7 6 4 3 3 3 3 5 6 8 10 11 12 13 13 13 13
34 27 22 23 30 39 45 44 41 37 32 28 24 20 14 10 8 6 5 5 5 6 7 7 7 7 8 8 9 9 8 8 7 7 6 5 4 4 5 5 6 8 9 11 11 12 13 13 13
35 30 26 25 30 39 46 47 44 40 34 32 28 22 17 12 10 8 8 7 7 7 7 7 7 7 7 8 9 9 9 8 8 8 7 6 6 6 6 7 7 8 9 10 11 12 13 13 13
36 32 30 28 30 37 45 47 46 42 37 34 30 24 19 15 13 11 10 10 9 8 8 8 8 7 8 8 9 9 9 9 9 8 8 8 8 8 8 9 9 9 9 11 12 12 13 12 13
36 34 31 29 29 34 42 47 47 42 39 36 31 26 21 18 15 13 12 11 11 11 10 10 9 9 9 9 9 10 10 10 10 9 9 9 10 10 10 11 11 11 11 12 13 13 14 14 14
36 34 31 28 28 31 39 45 46 42 40 36 32 27 24 21 18 14 13 13 12 12 12 12 11 11 11 11 11 11 11 11 11 11 11 12 13 13 14 14 14 14 14 14 14 15 16 16 16
35 33 30 28 28 30 34 40 42 42 40 37 34 29 26 23 20 17 16 16 15 13 15 15 14 13 14 14 13 13 13 12 13 13 13 14 15 16 17 17 17 17 17 17 16 16 17 17 18
34 32 29 28 28 29 30 35 39 41 40 39 35 31 27 25 22 19 17 16 16 16 16 18 16 16 17 17 16 15 15 14 14 14 16 18 19 20 20 21 21 20 19 18 18 18 18 18 19
32 31 29 28 28 29 29 31 36 39 39 39 37 33 29 26 22 20 19 19 18 18 18 20 19 19 19 19 19 18 17 17 17 17 19 21 22 23 23 23 24 22 22 21 21 20 20 20 21
32 31 29 28 28 28 28 29 34 37 37 37 36 33 30 26 24 22 21 20 20 19 20 22 23 22 22 22 21 21 21 21 21 22 22 23 24 24 25 24 23 23 25 24 22 22 22 23 23
30 29 28 27 27 27 27 28 31 35 35 35 35 34 31 29 26 24 22 20 20 20 20 23 24 25 25 24 23 23 24 25 25 25 25 25 25 26 26 25 25 25 25 26 25 25 24 25 25
29 28 28 27 27 26 26 27 30 33 34 34 34 35 33 31 28 25 23 21 20 21 20 20 21 23 24 24 26 27 28 29 30 26 26 26 26 26 26 27 27 26 26 26 26 27 27 27 28
27 27 28 28 28 26 26 27 28 30 30 31 32 32 33 32 31 28 25 24 22 21 21 22 22 22 24 26 27 29 31 30 29 29 28 27 28 29 29 28 28 29 29 28 28 29 29 29 30
26 28 28 29 28 27 26 27 28 28 28 28 30 31 32 32 32 30 28 26 25 23 23 23 23 24 26 27 30 31 33 33 30 30 29 29 30 31 30 30 30 29 30 30 30 30 31 31 32
27 29 30 30 29 29 28 27 29 29 29 29 30 31 31 31 31 31 29 27 27 26 25 25 26 28 30 31 33 35 35 34 33 32 31 31 31 31 31 30 31 31 31 31 32 32 33 34 35
27 29 30 31 31 30 29 30 31 31 31 31 31 31 32 31 31 32 32 31 30 29 29 29 30 31 32 34 36 37 38 36 35 34 34 33 31 32 32 32 33 33 33 33 33 35 36 37 38
26 28 30 31 32 32 31 32 33 32 32 32 32 32 32 32 32 32 32 32 32 32 33 34 34 35 36 38 38 38 37 38 37 35 35 34 35 34 34 34 34 35 35 36 37 39 40 41 42
25 27 28 29 30 30 32 33 33 33 34 34 34 33 33 34 34 35 36 36 36 37 37 38 38 39 40 40 39 40 39 38 38 38 37 37 36 36 36 36 37 38 38 40 42 43 44 45 46
24 25 27 29 28 29 32 33 34 34 34 35 36 36 36 36 36 37 38 38 39 40 42 42 43 42 41 41 42 43 43 43 42 42 41 39 38 39 39 40 41 42 43 45 46 47 49 50 51
24 25 27 28 29 30 31 33 33 34 35 36 37 38 39 39 39 39 39 41 42 42 43 44 44 44 45 45 45 45 45 45 44 44 42 41 42 43 43 44 45 47 48 49 50 52 54 55 56
22 24 26 27 28 29 31 34 35 35 36 37 38 39 40 40 40 40 41 41 41 42 43 44 45 46 46 47 47 47 47 46 45 44 44 44 46 46 47 48 50 51 52 53 55 57 58 59 60

GEFSSGP_500_meanwind_054.txt.gz
Wind_Speed
19 22 23 24 22 19 17 21 18 17 16 15 14 14 13 11 10 10 10 10 10 10 10 10 10 9 8 8 9 9 9 9 8 7 7 6 5 5 4 4 3 3 3 3 3 3 3 3 3
18 22 24 25 24 19 20 23 21 19 17 15 14 13 12 12 10 11 10 10 11 11 11 11 11 10 9 9 9 10 10 10 9 8 7 7 6 5 5 4 4 4 4 4 4 4 3 3 3
20 23 26 27 28 24 21 25 24 20 18 17 14 13 12 11 11 11 10 10 10 11 11 11 11 10 10 10 10 10 10 10 9 8 7 7 6 6 5 5 5 5 5 4 5 4 4 4 4
23 25 27 28 30 30 29 28 26 23 20 18 15 12 10 10 10 10 10 9 9 10 10 10 10 10 10 10 11 11 11 10 10 9 8 7 7 6 6 5 5 5 5 5 5 5 5 6 6
27 26 27 27 30 31 33 31 27 25 21 17 14 12 11 9 9 8 9 9 9 9 10 10 10 10 10 11 11 11 11 11 10 9 8 8 7 7 6 6 5 5 4 4 5 6 6 7 7
31 28 26 26 28 32 34 33 30 27 23 19 16 13 11 9 8 7 7 8 8 9 9 10 10 10 11 11 11 11 11 10 10 9 9 8 7 7 6 5 5 4 4 4 5 6 7 8 8
34 31 27 26 29 32 35 35 33 30 27 22 18 14 12 11 9 8 6 7 7 9 9 10 10 10 11 11 11 11 11 10 10 9 9 8 7 7 6 5 4 4 3 4 5 6 8 9 9
37 34 29 28 30 33 36 37 35 33 30 26 20 17 14 11 9 8 6 6 7 8 9 9 10 11 11 11 12 12 11 10 10 9 9 8 7 6 5 4 4 4 4 5 6 8 9 10 11
40 38 32 29 31 33 37 38 37 35 32 27 23 19 16 13 10 8 6 5 7 8 9 9 10 11 11 12 12 12 11 10 10 9 8 8 7 6 5 5 5 5 6 7 8 9 10 11 12
42 40 34 34 33 35 38 38 39 37 34 30 26 23 19 15 12 9 7 6 7 8 9 10 10 10 11 12 11 11 11 10 10 9 9 8 7 6 6 6 6 6 7 8 9 10 10 11 11
42 41 39 36 33 34 37 39 40 39 36 32 28 24 21 17 14 12 10 8 8 9 10 10 10 10 11 11 11 10 10 10 10 9 9 9 8 8 8 8 8 8 9 10 10 11 11 12 12
42 42 41 38 36 35 37 38 39 39 37 35 32 27 23 19 16 14 11 10 9 10 10 10 10 10 10 10 10 10 10 10 10 10 10 10 10 11 10 10 10 10 11 12 12 12 13 14 14
40 41 41 40 38 36 35 36 37 37 38 38 34 30 26 21 17 15 13 11 11 11 11 11 10 10 10 10 10 10 10 10 11 12 12 12 13 13 13 13 13 14 14 15 15 14 14 15 15
38 40 41 40 38 35 33 34 35 36 39 39 36 31 28 24 20 17 14 13 12 13 13 12 11 10 10 10 10 10 11 12 13 13 14 14 15 15 16 16 17 17 18 18 18 17 17 18 18
35 37 38 38 36 35 33 32 32 35 38 38 36 33 29 26 22 19 17 15 14 15 15 14 13 12 11 11 12 12 13 14 15 15 16 17 17 18 19 20 20 21 21 21 21 20 20 21 21
31 33 34 36 36 35 32 30 32 34 36 37 36 34 30 27 24 22 20 19 17 17 17 17 15 15 14 13 13 13 14 15 16 17 18 19 20 21 22 23 24 25 25 25 25 24 23 24 23
29 30 32 34 34 33 31 29 30 31 33 36 36 35 32 29 27 25 23 21 20 19 19 19 19 18 16 16 16 16 17 18 19 20 21 22 23 24 25 26 28 28 27 27 27 27 27 26 25
27 28 30 31 32 32 31 31 29 29 31 34 35 36 34 31 30 27 26 24 22 22 22 22 22 21 20 19 18 19 20 21 22 23 24 25 26 28 28 29 29 30 28 28 28 28 28 28 27
27 28 29 31 30 30 30 30 29 28 30 33 35 35 34 33 30 28 28 27 25 25 23 24 25 25 24 23 23 23 23 24 25 25 26 28 29 30 32 31 31 31 30 30 30 28 28 28 27
25 26 26 28 29 29 29 28 28 28 29 31 33 35 34 33 31 29 29 28 27 26 26 26 27 27 27 28 28 27 27 27 28 30 31 32 32 33 33 31 31 30 29 27 26 27 28 27 28
24 25 26 27 28 27 27 26 26 27 27 29 31 33 33 33 32 31 31 30 29 28 28 27 28 29 30 30 32 31 30 31 32 33 35 37 37 34 32 29 29 28 28 27 27 27 28 28 29
21 24 26 27 25 23 24 20 25 26 27 27 28 30 32 33 33 33 33 32 31 30 29 28 28 29 30 31 32 33 33 34 34 35 35 37 37 33 30 29 28 29 29 29 29 28 28 30 30
22 24 25 26 26 23 23 20 23 25 26 26 26 27 29 32 34 35 35 35 34 32 31 30 30 31 32 31 31 32 32 33 34 35 35 34 33 32 32 30 28 29 30 30 30 30 30 31 31
22 24 25 25 23 22 23 21 23 25 25 24 24 25 26 28 31 33 36 36 34 33 32 31 32 31 32 32 33 33 32 33 33 35 35 34 34 34 33 31 30 29 29 30 30 32 32 32 32
21 22 21 20 21 21 24 23 23 23 23 23 23 23 23 25 27 29 32 34 35 35 34 33 32 32 32 33 33 34 34 35 37 38 39 38 38 37 35 32 32 30 30 31 33 34 34 35 35
20 22 18 15 17 20 25 25 25 22 21 22 22 22 22 24 26 27 29 32 34 34 34 34 34 33 33 36 36 36 38 39 40 41 42 42 42 40 37 36 35 33 33 35 35 37 38 38 40
19 21 20 19 18 18 23 26 25 24 23 22 23 23 23 25 26 28 29 30 32 33 34 34 35 35 36 37 38 39 40 41 43 44 45 46 45 43 42 42 42 38 38 39 39 40 41 42 43
19 20 21 18 15 16 21 24 24 24 24 23 23 24 25 26 28 29 30 31 33 34 34 35 36 37 38 39 41 42 43 45 45 46 47 48 47 47 47 46 45 43 42 43 44 44 46 47 47
17 19 20 18 17 14 17 23 23 24 25 25 25 26 27 28 30 31 32 33 34 35 36 37 39 40 41 42 43 44 45 45 47 47 48 47 47 48 48 47 47 46 47 47 47 47 48 50 51
16 17 18 17 19 19 15 21 22 23 24 25 26 27 29 30 31 32 33 35 36 37 38 39 40 41 42 43 43 44 45 46 45 46 46 47 47 46 47 47 48 48 48 48 48 49 51 53 55

GEFSSGP_500_meanwind_060.txt.gz
Wind_Speed
14 16 18 19 18 16 12 12 13 10 9 11 17 15 16 19 18 17 15 13 12 13 13 12 12 13 13 13 12 12 11 11 11 12 12 12 12 11 11 10 10 9 9 8 8 7 7 7 7
16 17 20 21 20 17 15 17 17 12 12 15 18 19 21 21 18 17 17 16 14 15 14 14 14 14 15 14 14 13 12 12 12 12 12 12 12 11 10 10 9 9 8 7 7 7 7 7 7
20 20 22 23 22 20 19 20 19 11 12 17 18 20 23 21 19 19 19 18 17 17 16 16 16 16 16 15 15 14 13 12 12 12 12 12 11 10 10 9 9 8 7 7 6 6 6 7 7
24 23 24 25 22 19 21 23 19 11 10 15 16 19 21 20 19 18 18 19 17 17 17 16 17 17 17 16 15 14 13 13 12 12 12 11 11 10 9 8 8 7 6 6 6 6 6 6 7
29 27 27 25 23 21 21 23 21 15 12 13 16 19 19 18 16 16 16 17 15 15 16 16 17 17 17 16 15 14 14 13 12 12 11 11 10 9 8 7 6 6 5 5 5 6 6 6 7
33 31 30 26 24 23 24 25 21 15 13 13 15 21 21 17 15 15 15 15 14 13 15 15 17 16 16 16 15 14 14 13 12 11 11 10 9 8 7 6 5 5 5 6 6 6 7 7 8
35 34 32 28 27 26 25 26 23 19 18 18 19 22 24 18 15 14 14 14 13 13 14 14 15 16 15 15 15 14 13 12 12 11 11 10 9 8 7 6 5 6 6 6 7 7 7 8 8
36 38 36 32 29 28 27 31 28 26 24 24 25 25 25 17 12 12 13 14 12 11 13 13 14 15 15 15 14 13 13 12 11 11 10 9 9 8 6 6 6 6 6 6 7 8 8 9 9
38 41 40 35 31 28 27 34 32 28 26 27 28 30 28 16 10 11 12 12 12 10 11 12 14 14 14 14 14 13 12 12 11 11 10 9 9 7 7 6 6 6 7 7 8 9 9 9 9
39 42 39 36 34 30 28 33 30 27 26 25 27 30 28 20 15 14 12 12 11 10 10 11 13 13 13 13 13 13 12 12 11 10 10 9 8 8 7 7 7 7 8 8 9 9 10 10 10
38 40 39 38 37 34 32 32 31 29 25 22 22 25 26 22 19 16 14 12 11 11 10 11 12 13 13 13 13 12 12 11 11 10 10 10 9 8 8 8 8 9 9 10 11 11 12 12 12
36 38 39 40 40 40 38 36 33 30 25 23 24 26 26 23 20 18 16 13 12 11 11 10 11 12 12 12 12 12 12 11 11 10 10 10 10 10 10 10 10 11 11 12 13 14 14 15 15
33 36 38 41 44 45 44 42 38 35 30 27 27 27 27 25 22 20 18 16 13 12 12 11 11 12 12 12 12 11 11 11 11 10 10 10 11 11 12 13 13 13 14 15 16 16 18 19 18
30 32 37 41 43 45 45 42 41 37 33 31 30 29 28 27 25 23 21 18 17 15 13 12 11 12 12 13 13 12 12 12 11 11 11 12 12 13 14 15 16 16 17 18 19 20 21 21 21
30 33 35 37 40 41 42 42 39 36 35 33 31 31 31 29 28 26 23 21 19 17 15 13 13 14 14 14 13 13 13 13 13 12 13 13 14 15 16 17 18 19 20 21 22 24 24 24 24
27 29 31 31 33 35 39 39 36 35 35 34 32 31 30 30 31 29 27 24 21 18 16 14 15 15 15 15 15 14 14 14 14 14 15 16 16 17 18 20 21 22 24 25 26 27 27 27 27
21 21 22 22 25 29 34 34 31 32 34 33 31 30 29 29 32 32 29 26 24 21 17 16 16 16 17 17 17 16 16 16 16 16 17 18 19 20 21 23 24 25 26 27 29 31 31 30 30
10 12 13 13 17 23 27 28 27 28 30 32 30 30 29 30 31 32 30 27 26 23 20 19 18 18 18 19 19 19 19 19 19 19 20 21 22 24 25 26 27 28 30 31 32 33 33 31 31
13 13 13 14 18 20 23 26 26 27 29 29 29 29 30 32 32 31 31 29 28 26 24 22 21 20 20 20 21 21 22 23 23 24 25 25 26 27 28 29 31 32 32 33 34 33 32 31 30
17 15 13 16 19 19 21 24 27 29 29 29 28 30 31 32 31 30 31 31 30 27 25 24 22 21 22 22 23 24 25 26 27 28 29 29 30 30 32 33 33 34 34 34 33 32 32 30 29
19 18 15 15 16 18 21 23 26 28 29 28 27 29 31 33 32 32 32 31 29 28 26 26 24 24 25 25 25 26 27 28 30 32 33 33 33 33 34 34 34 34 33 32 30 30 30 31 31
16 16 17 16 16 17 19 20 24 25 28 30 30 29 31 30 29 28 29 29 29 29 28 28 27 27 27 27 27 28 29 30 31 33 35 36 35 35 34 33 33 33 33 31 29 29 29 31 30
12 12 16 16 18 19 18 19 23 24 27 30 31 31 29 29 28 28 29 30 31 30 30 29 29 29 29 30 29 30 30 31 33 34 33 34 35 35 34 34 33 32 31 30 31 30 31 31 31
14 13 14 15 17 20 20 21 24 24 26 28 29 29 28 27 27 27 29 30 31 32 32 32 31 31 31 33 32 32 33 34 35 35 35 34 35 35 35 34 32 32 31 32 32 33 33 34 33
16 15 12 12 16 18 17 22 28 27 24 25 26 27 28 27 27 27 29 30 32 33 32 32 32 32 33 34 34 34 34 35 35 35 35 35 35 35 35 34 33 33 33 34 35 36 36 35 37
16 18 16 12 13 13 17 26 29 26 21 22 22 24 26 27 26 27 28 30 32 32 33 34 35 35 36 37 37 36 35 36 37 36 36 37 36 35 34 34 35 36 35 36 37 38 39 39 40
14 19 17 16 16 16 24 30 29 27 24 21 22 23 24 25 25 25 26 27 29 31 34 35 36 37 37 38 39 38 38 38 38 38 38 39 38 38 37 37 37 38 39 40 40 41 42 42 42
15 16 15 14 13 16 22 27 27 24 24 23 23 23 24 25 25 25 25 26 28 30 32 32 34 35 36 38 39 38 38 39 40 40 41 41 41 40 39 39 40 41 42 43 43 43 44 45 46
17 19 18 15 14 14 16 21 26 26 24 24 25 25 25 25 25 26 27 27 28 29 30 31 33 34 36 37 37 37 39 41 42 42 43 42 41 42 42 42 43 44 46 46 45 45 47 47 48
14 17 19 18 17 14 16 19 18 21 22 23 23 25 26 26 26 27 28 29 30 31 32 33 33 34 36 36 37 38 40 41 42 43 43 43 44 44 44 44 45 46 47 47 46 47 48 50 51

GEFSSGP_500_meanwind_066.txt.gz
Wind_Speed
19 18 18 19 19 18 18 20 20 17 14 14 13 14 12 10 8 8 9 8 8 8 7 7 8 9 10 11 12 12 12 11 11 11 10 10 11 11 11 11 11 11 10 9 9 8 7 7 6
22 21 21 21 20 19 20 22 20 18 16 14 14 14 13 8 8 10 11 11 10 9 9 9 9 10 11 12 13 13 13 12 12 11 11 11 11 11 11 11 10 10 9 8 8 7 6 5 5
26 24 24 23 21 19 22 24 23 19 17 16 16 14 11 7 7 10 12 13 11 9 9 10 10 11 12 13 14 14 14 13 13 12 11 11 11 11 10 10 10 9 8 7 6 6 5 5 5
28 28 27 25 21 20 24 26 25 20 17 19 17 14 10 7 8 9 12 13 11 10 10 10 11 11 12 14 14 15 14 14 13 12 12 11 11 10 10 9 8 7 7 6 5 5 4 4 5
30 30 29 26 21 22 26 27 27 24 19 21 19 15 13 10 9 8 9 10 9 9 9 9 10 11 13 14 15 15 15 14 13 13 12 11 10 10 9 8 7 6 5 4 4 4 4 4 5
30 32 31 27 24 25 27 28 28 26 23 22 22 19 17 14 9 7 8 9 9 8 8 9 10 11 12 13 14 14 15 14 14 13 12 11 10 9 8 8 6 5 4 4 4 4 4 4 5
31 33 32 29 28 28 29 31 30 28 26 24 23 21 19 15 9 7 7 9 8 8 9 9 10 11 12 12 13 14 14 14 14 13 12 11 10 9 8 7 6 5 4 4 4 4 4 4 5
32 34 33 32 30 30 31 34 32 31 28 26 25 23 18 15 10 6 7 9 10 9 10 10 10 10 11 12 13 13 14 14 14 13 12 11 10 9 8 7 6 5 5 4 4 4 5 5 5
34 35 33 32 33 32 35 37 35 33 30 27 24 21 20 15 12 8 7 9 10 9 10 10 10 10 11 12 13 14 14 14 13 13 12 11 10 9 8 7 6 6 5 5 5 5 6 6 7
35 35 32 33 35 36 38 39 38 36 33 29 26 22 21 19 14 10 8 9 10 10 10 9 9 10 11 12 13 14 13 13 13 13 12 11 10 9 8 7 6 6 6 6 6 7 7 7 8
33 33 32 34 36 38 41 41 40 39 36 31 29 26 23 22 17 11 10 11 10 10 10 10 9 10 11 12 13 13 14 13 13 13 12 11 10 9 8 8 7 7 7 7 7 8 9 9 10
32 32 33 34 37 40 42 43 42 40 36 33 31 27 24 21 16 13 12 12 11 11 10 9 9 10 11 12 12 13 13 13 13 13 12 11 11 10 9 8 8 8 9 9 9 10 11 12 13
31 31 33 34 37 40 43 44 44 41 38 37 34 31 26 19 15 14 13 14 14 12 11 9 10 10 10 11 12 13 13 13 13 13 12 12 11 11 10 10 10 10 10 11 11 13 14 15 16
28 31 33 35 37 39 43 45 45 42 40 39 36 31 25 21 16 14 14 15 16 14 13 12 11 11 11 12 12 13 13 13 13 13 13 13 12 12 12 11 11 12 12 13 14 15 17 18 20
27 29 30 32 33 36 40 45 45 42 41 40 37 33 27 24 19 18 17 16 17 17 15 14 13 13 13 13 13 14 14 14 14 14 14 14 14 14 13 13 13 14 14 16 17 18 20 22 23
24 25 24 24 28 31 37 42 42 42 42 40 37 34 31 27 23 22 21 19 20 20 18 17 16 16 15 15 16 15 15 15 15 15 15 15 15 15 15 15 15 16 17 18 20 21 22 23 24
21 21 20 19 21 24 31 34 36 40 42 40 37 36 34 30 28 26 24 23 23 23 21 20 19 18 18 17 17 17 16 16 17 17 17 16 16 17 17 17 17 18 19 21 21 22 23 24 25
16 17 17 18 18 21 25 26 29 35 39 40 39 37 37 34 31 29 28 26 26 26 24 24 23 21 20 19 19 18 18 18 18 18 18 17 17 18 18 19 20 21 22 22 23 24 25 25 26
15 16 15 16 17 19 21 22 25 30 34 37 38 38 38 36 33 31 30 29 29 27 26 26 26 24 22 21 20 20 19 19 19 19 19 19 20 20 20 21 22 22 23 24 24 25 26 26 26
14 15 14 15 16 16 18 20 24 27 31 34 35 37 38 36 34 33 32 31 30 28 27 26 26 25 24 23 23 23 22 22 21 21 21 22 23 23 23 23 24 24 24 24 26 27 28 28 27
14 14 13 14 16 16 17 19 22 25 27 30 33 34 35 35 34 33 32 32 31 29 28 29 28 26 26 24 24 24 24 24 23 22 22 23 23 23 22 22 24 25 25 26 26 26 26 26 27
16 16 14 14 16 17 17 18 21 23 25 29 31 32 33 33 33 33 31 31 30 30 29 29 28 27 28 26 25 26 24 25 25 24 22 22 22 22 22 22 23 24 25 26 27 26 25 25 25
16 17 17 16 15 18 18 19 20 22 24 26 28 30 31 31 31 30 31 30 31 31 30 28 27 28 27 28 27 27 25 25 26 24 22 22 21 21 20 19 19 21 23 24 25 25 26 27 26
15 17 17 17 18 18 18 20 21 22 23 24 26 28 30 31 31 30 30 30 28 29 29 29 29 29 28 28 28 28 27 27 25 23 23 22 21 20 20 20 20 23 25 26 27 27 28 28 28
16 16 17 18 19 18 18 21 22 22 22 22 24 24 27 30 31 31 31 29 29 29 28 28 29 30 29 29 29 29 28 27 26 25 24 23 23 24 24 24 25 26 28 29 30 31 31 31 31
18 18 17 15 16 18 19 21 22 21 20 20 21 23 25 28 30 30 30 30 30 30 30 30 30 29 29 30 28 28 27 27 28 28 27 26 26 28 28 29 30 30 31 32 32 32 32 33 33
18 19 17 16 16 18 19 21 22 21 20 20 21 22 23 25 28 30 30 30 29 29 30 30 30 28 28 28 29 29 29 28 28 28 28 29 29 30 31 32 32 33 32 32 31 32 33 35 37
17 18 18 18 17 17 19 19 19 20 21 20 21 22 24 24 26 27 28 27 27 28 28 28 27 27 27 27 28 27 27 28 28 28 29 30 31 33 33 33 34 34 34 34 35 36 37 38 40
17 19 20 19 17 16 16 18 20 19 20 21 21 23 24 25 25 26 27 26 27 27 27 27 27 27 28 28 28 28 29 29 29 30 31 32 33 33 34 35 35 36 36 37 38 38 39 41 42
16 18 19 19 16 14 15 16 16 17 18 20 22 23 24 24 25 26 26 26 26 27 27 28 28 29 29 30 30 30 31 31 32 33 34 35 35 36 37 37 38 38 38 39 40 40 41 43 44

GEFSSGP_500_meanwind_072.txt.gz
Wind_Speed
23 21 20 19 19 18 18 20 22 22 23 21 19 18 16 15 12 10 9 8 8 6 6 7 8 9 9 8 8 7 7 7 7 7 7 7 6 6 7 7 7 7 8 8 8 7 7 6 6
25 24 23 22 20 18 18 21 23 24 24 22 20 18 17 15 14 12 11 10 8 7 7 8 9 9 10 10 9 9 8 8 9 8 8 8 8 7 7 7 7 7 7 7 6 6 5 5 5
27 26 26 24 21 18 19 22 24 26 26 24 22 20 19 17 16 13 11 10 9 9 9 9 10 11 11 11 10 10 9 10 10 10 10 9 9 8 7 7 7 7 6 6 5 5 4 4 4
27 28 28 26 22 20 21 23 26 27 27 26 24 23 21 19 17 15 12 11 12 11 11 11 11 11 12 12 12 11 11 11 11 11 11 10 9 9 8 7 7 6 6 5 4 4 3 3 4
27 28 29 26 23 22 24 26 28 29 28 27 26 25 23 20 17 14 12 12 12 13 13 12 12 13 13 13 13 12 12 12 12 12 11 11 10 9 8 8 7 6 5 4 4 3 3 3 3
27 28 29 27 25 25 27 29 30 31 30 28 27 26 24 22 17 15 13 13 13 14 13 13 13 13 13 13 13 13 13 13 13 13 12 11 10 9 9 8 7 6 5 4 4 4 3 3 4
26 28 28 27 27 28 29 32 33 34 32 31 29 28 25 22 19 15 14 13 13 13 13 13 14 13 13 13 13 14 14 14 14 13 13 12 11 10 9 8 7 7 6 5 5 4 4 4 4
26 28 28 28 28 29 32 35 35 36 35 33 31 30 26 24 21 18 15 15 14 13 14 14 13 13 12 12 13 13 13 14 14 14 13 12 11 11 10 9 8 8 7 6 6 5 5 5 5
27 28 27 27 29 30 34 37 38 38 37 36 34 31 28 25 22 20 16 14 14 14 15 13 12 12 12 12 12 12 13 13 14 14 14 13 13 12 11 10 9 9 8 8 7 7 6 6 6
28 28 26 28 30 32 36 39 40 41 40 38 36 34 30 26 22 18 16 14 13 14 14 13 12 11 11 12 12 12 13 14 14 14 14 14 14 13 12 12 11 10 10 9 9 8 7 7 7
29 29 28 29 30 33 36 39 41 43 42 39 37 35 33 28 23 20 16 13 13 14 15 14 12 12 11 12 12 13 13 14 15 15 15 15 15 14 13 13 13 12 11 11 10 9 9 8 9
30 30 30 30 31 33 35 38 41 43 42 41 40 37 34 29 24 20 17 15 13 14 15 14 13 12 12 12 12 13 13 14 15 15 15 15 15 15 14 14 14 13 13 13 12 11 11 10 11
30 30 30 29 31 32 34 37 41 42 42 43 42 39 35 29 25 21 18 15 15 15 16 15 14 13 13 12 12 13 14 15 15 15 15 16 16 16 16 16 15 15 15 14 14 13 12 12 13
29 29 28 28 28 30 32 35 39 39 41 42 41 39 35 30 25 22 19 17 15 16 17 16 15 13 13 12 13 14 14 15 15 16 16 16 17 17 17 17 17 17 16 16 15 15 14 14 15
28 27 25 25 26 28 31 32 35 36 39 41 41 39 36 32 27 24 20 18 16 17 17 17 16 14 14 14 14 14 14 15 16 17 17 17 18 18 19 19 19 18 18 18 17 17 17 17 18
26 25 23 23 25 26 30 30 30 34 37 39 40 39 36 34 29 25 22 20 19 18 18 19 18 17 16 16 15 15 15 16 17 18 18 19 20 20 20 21 21 21 20 20 19 19 19 20 20
24 23 22 22 24 26 29 29 29 32 35 38 39 39 38 35 31 27 25 23 21 21 21 21 21 20 19 19 19 19 18 18 19 20 20 21 22 22 22 22 22 22 21 21 21 21 21 22 22
22 22 21 21 23 26 28 28 27 30 33 36 38 39 39 36 33 30 28 25 24 23 23 23 24 23 22 21 21 22 21 21 21 22 22 23 23 23 24 24 23 23 22 22 23 23 23 24 25
21 21 20 20 23 26 27 27 27 28 31 34 37 38 38 38 35 33 31 29 27 26 25 25 25 24 25 24 25 25 24 24 24 25 25 25 25 25 25 25 25 25 25 24 25 25 25 26 26
21 20 19 18 21 24 25 26 26 26 29 31 34 36 38 38 37 36 35 33 31 29 29 28 26 25 26 26 26 28 27 27 26 25 26 26 27 27 27 27 27 27 26 26 26 27 27 27 27
20 19 17 17 20 22 23 23 23 24 27 29 31 33 35 36 37 37 36 35 33 31 30 30 28 26 26 27 29 30 28 27 27 26 27 27 29 30 29 29 29 28 28 27 26 27 27 27 27
18 18 18 18 20 20 21 21 20 21 23 26 28 31 33 35 36 37 37 36 34 33 31 31 30 29 29 28 28 29 29 27 26 27 28 29 30 31 31 29 29 28 27 26 24 24 25 26 26
18 18 19 19 19 21 20 21 20 20 20 22 25 27 29 31 34 36 36 36 35 34 32 31 30 31 31 29 27 26 26 26 26 27 27 27 29 29 30 29 27 25 24 24 24 24 24 26 27
18 19 20 20 18 19 19 20 20 19 19 21 22 24 27 29 31 33 34 35 34 34 33 32 31 31 31 29 27 25 25 23 24 25 25 25 26 27 26 26 26 24 23 24 24 25 26 27 28
18 18 19 19 19 19 19 19 18 18 18 18 20 22 25 27 28 29 31 32 32 33 33 32 31 31 30 28 26 25 25 23 21 21 21 23 24 25 24 24 24 24 24 25 26 27 28 29 31
15 17 17 17 17 17 18 19 16 16 16 16 17 21 23 24 26 27 29 30 30 30 31 31 31 29 28 27 26 25 25 23 23 22 22 21 21 21 21 21 23 24 25 26 27 27 29 31 33
14 15 16 17 17 17 18 18 17 15 15 16 17 19 20 21 24 26 27 28 28 29 28 28 28 28 28 27 26 25 24 24 23 23 22 21 20 20 21 23 24 25 26 28 29 29 31 33 34
13 14 15 16 16 16 17 16 16 17 16 16 16 18 19 19 20 22 23 24 25 26 26 26 27 28 28 28 26 25 24 23 23 22 23 22 21 21 21 22 24 26 28 29 31 32 34 35 36
11 13 14 16 16 16 16 15 15 15 15 15 15 15 17 20 21 22 23 24 25 25 26 27 28 27 26 25 25 24 24 24 23 22 22 22 22 23 24 26 28 29 30 32 33 34 35 36 37
11 13 13 14 15 15 15 14 14 13 13 13 13 14 17 18 20 20 21 22 24 24 25 25 26 25 24 24 24 24 24 24 23 23 23 23 24 25 27 28 30 31 33 34 35 35 36 37 38